TimeEST,TemperatureF,Dew PointF,Humidity,Sea Level PressureIn,VisibilityMPH,Wind Direction,Wind SpeedMPH,Gust SpeedMPH,PrecipitationIn,Events,Conditions,WindDirDegrees,DateUTC
12:15 AM,37.6,33.4,85,29.99,5.0,SE,13.8,23.0,0.01,Rain,Light Rain,130,2013-01-11 05:15:00
12:34 AM,37.6,33.4,85,29.99,4.0,SE,12.7,19.6,0.02,Rain,Light Rain,130,2013-01-11 05:34:00
12:55 AM,37.6,33.8,86,29.97,4.0,SE,12.7,-,0.04,Rain,Rain,140,2013-01-11 05:55:00
1:15 AM,37.6,33.8,86,29.97,4.0,SE,10.4,20.7,0.03,Rain,Rain,130,2013-01-11 06:15:00
1:35 AM,37.6,34.0,87,29.93,4.0,ESE,12.7,19.6,0.06,Rain,Rain,120,2013-01-11 06:35:00
1:55 AM,37.6,34.2,87,29.92,5.0,SE,11.5,18.4,0.09,Rain,Light Rain,130,2013-01-11 06:55:00
2:15 AM,37.6,34.2,87,29.91,7.0,SE,15.0,-,0.01,Rain,Light Rain,130,2013-01-11 07:15:00
2:35 AM,37.6,34.2,87,29.91,7.0,SE,11.5,17.3,0.01,Rain,Light Rain,130,2013-01-11 07:35:00
2:55 AM,37.6,34.2,87,29.91,4.0,SE,9.2,-,0.01,Rain,Rain,140,2013-01-11 07:55:00
3:15 AM,37.6,34.3,88,29.90,7.0,SE,8.1,-,N/A,,Drizzle,130,2013-01-11 08:15:00
3:35 AM,37.6,34.3,88,29.88,5.0,ESE,9.2,-,N/A,,Light Drizzle,120,2013-01-11 08:35:00
3:55 AM,37.6,34.3,88,29.86,3.0,SE,8.1,-,0.01,Rain,Rain,130,2013-01-11 08:55:00
4:15 AM,37.6,34.7,89,29.84,7.0,ESE,6.9,10.4,N/A,Rain,Light Rain,120,2013-01-11 09:15:00
4:35 AM,37.6,34.7,89,29.82,7.0,ESE,10.4,-,0.01,Rain,Light Rain,110,2013-01-11 09:35:00
4:55 AM,37.6,34.7,89,29.80,7.0,ESE,8.1,17.3,0.03,Rain,Light Rain,120,2013-01-11 09:55:00
5:15 AM,37.6,34.7,89,29.78,7.0,ESE,8.1,-,N/A,Rain,Rain,120,2013-01-11 10:15:00
5:35 AM,37.6,34.7,89,29.76,7.0,SE,9.2,-,0.01,Rain,Rain,130,2013-01-11 10:35:00
5:55 AM,38.3,35.2,89,29.75,5.0,ESE,8.1,-,0.01,Rain,Light Rain,120,2013-01-11 10:55:00
6:15 AM,40.1,37.4,90,29.74,5.0,ESE,10.4,-,0.01,,Drizzle,120,2013-01-11 11:15:00
6:55 AM,40.1,37.4,90,29.71,5.0,SE,9.2,-,0.03,,Light Drizzle,130,2013-01-11 11:55:00
7:15 AM,40.5,37.6,89,29.70,7.0,SE,9.2,-,N/A,,Overcast,130,2013-01-11 12:15:00
7:35 AM,41.2,38.1,89,29.70,5.0,SE,9.2,-,N/A,,Overcast,130,2013-01-11 12:35:00
7:55 AM,41.4,38.3,89,29.69,4.0,SE,6.9,-,N/A,,Overcast,130,2013-01-11 12:55:00
8:15 AM,41.4,38.5,89,29.70,4.0,SSE,5.8,-,N/A,,Overcast,150,2013-01-11 13:15:00
8:35 AM,41.9,38.8,89,29.70,4.0,SE,8.1,-,N/A,,Overcast,140,2013-01-11 13:35:00
8:55 AM,42.8,39.7,89,29.70,1.5,SSE,6.9,-,N/A,,Drizzle,150,2013-01-11 13:55:00
9:15 AM,42.8,39.7,89,29.69,1.2,SE,8.1,-,0.01,Rain,Heavy Rain,140,2013-01-11 14:15:00
9:35 AM,42.8,39.7,89,29.69,1.2,SE,6.9,-,0.02,,Drizzle,130,2013-01-11 14:35:00
9:55 AM,43.5,40.5,89,29.69,2.0,SE,5.8,-,0.03,,Heavy Drizzle,140,2013-01-11 14:55:00
10:15 AM,44.6,41.7,90,29.68,3.0,South,4.6,-,N/A,,Light Drizzle,170,2013-01-11 15:15:00
10:35 AM,47.7,44.8,90,29.68,5.0,SSE,6.9,-,N/A,,Drizzle,160,2013-01-11 15:35:00
10:55 AM,50.2,47.3,90,29.69,5.0,SSW,13.8,-,N/A,,Light Drizzle,200,2013-01-11 15:55:00
11:15 AM,50.2,47.3,90,29.68,2.0,SW,15.0,20.7,0.01,Rain,Light Rain,220,2013-01-11 16:15:00
11:35 AM,50.2,47.3,90,29.67,5.0,SSW,11.5,-,0.01,,Light Drizzle,200,2013-01-11 16:35:00
11:54 AM,50.2,47.3,90,29.66,10.0,SW,12.7,-,0.01,,Overcast,220,2013-01-11 16:54:00
12:15 PM,50.2,46.9,89,29.67,5.0,SW,11.5,-,N/A,,Overcast,220,2013-01-11 17:15:00
12:35 PM,48.7,45.7,89,29.67,2.0,SW,10.4,-,N/A,,Overcast,220,2013-01-11 17:35:00
12:55 PM,47.7,44.8,90,29.66,4.0,SSW,6.9,-,N/A,,Overcast,200,2013-01-11 17:55:00
1:15 PM,48.4,45.5,90,29.66,4.0,SW,10.4,-,N/A,,Overcast,220,2013-01-11 18:15:00
1:35 PM,47.7,44.8,90,29.66,1.2,SSW,10.4,-,N/A,,Overcast,200,2013-01-11 18:35:00
1:55 PM,47.7,44.6,89,29.67,1.0,SSW,10.4,17.3,N/A,,Overcast,200,2013-01-11 18:55:00
2:15 PM,45.9,43.0,90,29.68,1.2,SW,13.8,19.6,N/A,,Overcast,220,2013-01-11 19:15:00
3:15 PM,44.2,41.5,90,29.70,0.2,SW,12.7,17.3,N/A,Fog,Fog,220,2013-01-11 20:15:00
3:35 PM,43.9,41.2,90,29.72,0.2,SW,13.8,-,N/A,Fog,Fog,220,2013-01-11 20:35:00
3:55 PM,43.7,41.0,90,29.73,0.2,SW,10.4,18.4,N/A,Fog,Fog,220,2013-01-11 20:55:00
4:15 PM,43.3,40.6,90,29.72,0.2,SW,12.7,-,N/A,Fog,Fog,230,2013-01-11 21:15:00
4:35 PM,43.7,41.0,90,29.74,0.5,SW,11.5,-,N/A,Fog,Fog,220,2013-01-11 21:35:00
4:55 PM,43.2,40.6,91,29.73,0.8,SSW,10.4,19.6,N/A,,Overcast,200,2013-01-11 21:55:00
5:15 PM,43.2,40.6,91,29.74,2.0,South,8.1,-,N/A,,Overcast,180,2013-01-11 22:15:00
5:35 PM,44.2,41.9,91,29.73,7.0,SSW,12.7,18.4,N/A,,Overcast,210,2013-01-11 22:35:00
5:55 PM,44.1,41.5,91,29.73,5.0,SSW,12.7,19.6,N/A,,Overcast,200,2013-01-11 22:55:00
6:15 PM,44.6,42.1,91,29.73,7.0,South,11.5,-,N/A,,Overcast,180,2013-01-11 23:15:00
6:35 PM,45.1,42.8,91,29.73,7.0,South,6.9,-,N/A,,Overcast,180,2013-01-11 23:35:00
6:55 PM,46.2,43.5,90,29.74,10.0,South,6.9,-,N/A,,Overcast,180,2013-01-11 23:55:00
7:15 PM,47.7,44.8,90,29.74,10.0,South,6.9,-,N/A,,Overcast,180,2013-01-12 00:15:00
7:35 PM,47.7,44.6,89,29.74,10.0,South,5.8,-,N/A,,Overcast,180,2013-01-12 00:35:00
7:55 PM,47.7,44.6,89,29.74,7.0,South,12.7,17.3,N/A,,Overcast,190,2013-01-12 00:55:00
8:15 PM,47.7,44.1,87,29.73,10.0,South,12.7,18.4,N/A,,Overcast,190,2013-01-12 01:15:00
8:35 PM,50.2,46.4,87,29.73,10.0,South,11.5,18.4,N/A,,Overcast,190,2013-01-12 01:35:00
8:55 PM,50.2,46.0,86,29.73,10.0,South,15.0,19.6,N/A,,Overcast,190,2013-01-12 01:55:00
9:15 PM,50.2,45.7,85,29.72,10.0,South,11.5,19.6,N/A,,Overcast,180,2013-01-12 02:15:00
9:35 PM,50.2,45.7,85,29.71,10.0,SSE,8.1,-,N/A,,Overcast,160,2013-01-12 02:35:00
9:55 PM,50.2,45.9,85,29.70,10.0,South,6.9,-,N/A,,Overcast,170,2013-01-12 02:55:00
10:15 PM,50.5,45.9,84,29.71,10.0,South,17.3,24.2,N/A,,Overcast,190,2013-01-12 03:15:00
10:35 PM,51.4,46.4,83,29.69,10.0,South,17.3,27.6,N/A,,Scattered Clouds,190,2013-01-12 03:35:00
10:55 PM,52.7,47.3,82,29.68,10.0,South,17.3,28.8,N/A,,Clear,190,2013-01-12 03:55:00
11:15 PM,52.7,46.8,80,29.68,10.0,SSW,19.6,31.1,N/A,,Clear,200,2013-01-12 04:15:00
11:35 PM,52.7,46.8,80,29.68,10.0,SSW,20.7,35.7,N/A,,Clear,200,2013-01-12 04:35:00
11:55 PM,52.7,47.1,81,29.67,10.0,South,17.3,31.1,N/A,,Clear,190,2013-01-12 04:55:00